[[{"header":{"parameterUnit":"m.s-1","parameterCategory":1,"la1":30.2991,"la2":30.254,"lo1":-89.0895,"lo2":-89.0444,"dy":0.0017,"dx":0.0017,"nx":28,"ny":28,"refTime":"2025-09-13T03:00:00:Z","depth":0,"parameterNumber":2,"parameterNumberName":"U-component_of_WINDS"},"data":[0,0,0,0,0,0,0,0,0,0,0,0,0,0,0,0,0,0,0,0,0,0,0,0,0,0,0,0,0,0,0,0,0,0,0,0,0,0,0,0,0,0,0,0,0,0,0,0,0,0,0,0,0,0,0,0,0,0,0.281,0.2811,0,0.2885,0.2886,0.2887,0.294,0.2941,0.2941,0.2942,0.3017,0.3019,0.302,0,0,0,0,0,0,0,0,0,0,0,0,0,0.2712,0.2714,0.281,0.2811,0.2812,0.2885,0.2886,0.2887,0.294,0.2941,0.2941,0.2942,0.3016,0.3018,0.302,0,0,0,0,0,0,0,0,0,0,0,0,0,0.2768,0.2714,0.281,0.2848,0.2852,0.2885,0.2886,0.2887,0.294,0.2941,0.2941,0.2942,0.3016,0.3018,0.3021,0.3022,0,0,0.3028,0.3029,0,0,0,0,0,0,0,0,0.2764,0.2771,0.2841,0.2845,0.285,0.2904,0.2879,0.2932,0.294,0.2907,0.2942,0.2942,0.2979,0.2984,0.2997,0.3025,0.3029,0.3028,0.3029,0.303,0.3031,0,0,0,0,0,0,0,0.276,0.2768,0.284,0.2842,0.2847,0.286,0.2869,0.2889,0.2938,0.2909,0.2914,0.2922,0.2981,0.2994,0.2999,0.303,0.3028,0.303,0.3032,0.3032,0.3062,0.3062,0,0,0,0,0,0,0.2751,0.2765,0.2838,0.2842,0.2808,0.2861,0.2871,0.2886,0.2938,0.2946,0.2921,0.2924,0.299,0.2996,0.3002,0.3006,0.303,0.3033,0.3034,0.3063,0.3062,0.3061,0,0,0,0,0,0,0.2749,0.2757,0.2834,0.2805,0.2815,0.2862,0.2879,0.2887,0.29,0.2947,0.2955,0.2926,0.2991,0.2998,0.3016,0.3009,0.3034,0.3036,0.3064,0.3063,0.3062,0.3015,0,0,0,0,0,0,0.2746,0.2756,0.2757,0.2804,0.2817,0.2848,0.2878,0.2888,0.2904,0.2909,0.2953,0.2961,0.2992,0.3012,0.3019,0.3013,0.3038,0.3065,0.3063,0.3062,0.3017,0.3012,0.3008,0,0,0,0,0,0.2742,0.2741,0.2757,0.2765,0.282,0.2848,0.2855,0.289,0.2904,0.2905,0.2935,0.296,0.3009,0.3014,0.3021,0.3016,0.3065,0.3064,0.3062,0.3019,0.3013,0.3008,0,0,0,0,0,0,0.2691,0.2748,0.2766,0.2781,0.2809,0.2857,0.2859,0.2883,0.2908,0.2911,0.2954,0.2963,0.2976,0.2999,0.3003,0.302,0.304,0.304,0.3005,0.3,0.2995,0.2989,0.304,0,0,0,0,0,0.2682,0.2701,0.2749,0.2757,0.277,0.2812,0.2826,0.2851,0.2881,0.2894,0.2925,0.2953,0.2976,0.2989,0.3012,0.3021,0.3031,0.3021,0.3017,0.3013,0.3012,0.3017,0.3013,0.3057,0.3057,0.3057,0,0,0.2663,0.2696,0.2705,0.2747,0.2772,0.279,0.2822,0.2839,0.2852,0.2896,0.2915,0.2939,0.2973,0.2986,0.2994,0.3005,0.3002,0.3011,0.3007,0.3009,0.3015,0.3011,0.3007,0.3056,0.3056,0.3056,0,0,0.2636,0.2663,0.2673,0.2697,0.2734,0.2762,0.2764,0.2809,0.2826,0.2846,0.2879,0.2895,0.2932,0.2955,0.2972,0.2954,0.2977,0.296,0.2936,0.2941,0.2937,0.2934,0.2927,0.2924,0.2959,0.2959,0.2959,0,0.2607,0.2635,0.2674,0.269,0.2707,0.2748,0.2757,0.2778,0.2821,0.2832,0.2844,0.2891,0.2918,0.2936,0.2931,0.2944,0.2947,0.2955,0.2935,0.2932,0.293,0.2923,0.2921,0.2957,0.2957,0.2957,0.2957,0,0.2597,0.2616,0.2619,0.2659,0.2677,0.2689,0.2729,0.2742,0.2766,0.2792,0.2811,0.2844,0.2874,0.288,0.2903,0.2902,0.2908,0.2927,0.2948,0.2923,0.2917,0.2915,0.2953,0.2954,0.2955,0.2955,0,0,0.254,0.2602,0.2602,0.2621,0.2665,0.268,0.2694,0.2723,0.2733,0.2761,0.2773,0.2804,0.2821,0.284,0.2866,0.287,0.2852,0.2889,0.2891,0.288,0.2852,0.2836,0.2832,0.2869,0.2868,0.2868,0.2848,0,0.252,0.2547,0.2582,0.2597,0.2614,0.2653,0.2665,0.2693,0.2718,0.2736,0.2764,0.2784,0.2807,0.2818,0.2824,0.2853,0.2847,0.2855,0.2879,0.2879,0.2868,0.283,0.2814,0.2793,0.2846,0.2846,0.2846,0,0.2499,0.2525,0.2542,0.2584,0.2593,0.2603,0.2632,0.2649,0.2681,0.2699,0.272,0.2748,0.2764,0.2783,0.2805,0.2809,0.2821,0.2837,0.2837,0.284,0.286,0.283,0.2788,0.2784,0.2843,0.2843,0.2843,0,0.2454,0.2494,0.2509,0.2523,0.2573,0.2579,0.26,0.2633,0.2648,0.2674,0.2684,0.2711,0.2726,0.2746,0.278,0.2791,0.2797,0.282,0.2812,0.2811,0.281,0.281,0.2768,0.282,0.282,0.282,0.282,0,0.2427,0.2435,0.2489,0.2498,0.2508,0.2548,0.2557,0.2582,0.2611,0.2624,0.266,0.2672,0.2717,0.2734,0.2761,0.2774,0.2781,0.2795,0.2802,0.2791,0.2789,0.2799,0.2801,0.2819,0.2819,0.2819,0.282,0,0.2378,0.2415,0.2433,0.2479,0.2491,0.2496,0.2535,0.2545,0.2572,0.2589,0.2595,0.2638,0.266,0.2696,0.2729,0.2747,0.2755,0.2767,0.2743,0.2747,0.2737,0.2737,0.2699,0.2695,0.275,0.2749,0.2749,0,0.2358,0.2365,0.2412,0.2424,0.2443,0.2462,0.2478,0.2518,0.2533,0.257,0.2575,0.26,0.2622,0.2655,0.2688,0.2713,0.2725,0.271,0.2729,0.2718,0.2724,0.2722,0.2723,0.2706,0.2705,0.2704,0.2704,0,0.2317,0.2335,0.2356,0.2384,0.2402,0.2426,0.2451,0.2459,0.2504,0.2519,0.2542,0.2559,0.2592,0.2616,0.2645,0.2667,0.2692,0.2698,0.2697,0.2685,0.2671,0.2677,0.273,0.2698,0.2699,0.2699,0.2699,0.27,0.2281,0.2289,0.2323,0.2346,0.2369,0.2392,0.2403,0.2432,0.2452,0.2482,0.2504,0.2525,0.2557,0.2599,0.2619,0.2636,0.2647,0.2647,0.2646,0.2645,0.264,0.2669,0.2642,0.2642,0.2642,0.2642,0.2642,0,0.2241,0.2265,0.2285,0.232,0.2337,0.2361,0.239,0.2403,0.2421,0.2449,0.247,0.2496,0.2519,0.2554,0.258,0.2586,0.2599,0.2592,0.2591,0.2595,0.2629,0.2627,0.2581,0.2581,0.2581,0.2581,0.2581,0.2581,0.2222,0.2236,0.2258,0.2284,0.2308,0.2329,0.2344,0.2365,0.2387,0.2414,0.2434,0.2457,0.2487,0.2515,0.2537,0.2547,0.2554,0.2543,0.2556,0.2587,0.2593,0.2598,0.2596,0.2545,0.2545,0.2521,0.2521,0.2521]},{"header":{"parameterUnit":"m.s-1","parameterCategory":1,"la1":30.2991,"la2":30.254,"lo1":-89.0895,"lo2":-89.0444,"dy":0.0017,"dx":0.0017,"nx":28,"ny":28,"refTime":"2025-09-13T03:00:00:Z","depth":0,"parameterNumber":3,"parameterNumberName":"V-component_of_WINDS"},"data":[0,0,0,0,0,0,0,0,0,0,0,0,0,0,0,0,0,0,0,0,0,0,0,0,0,0,0,0,0,0,0,0,0,0,0,0,0,0,0,0,0,0,0,0,0,0,0,0,0,0,0,0,0,0,0,0,0,0,2.4288,2.4288,0,2.422,2.4219,2.4218,2.4179,2.4179,2.4178,2.4178,2.4102,2.41,2.4098,0,0,0,0,0,0,0,0,0,0,0,0,0,2.438,2.4379,2.4289,2.4288,2.4287,2.422,2.4219,2.4218,2.4179,2.4179,2.4178,2.4178,2.4102,2.41,2.4098,0,0,0,0,0,0,0,0,0,0,0,0,0,2.4329,2.4378,2.4289,2.4259,2.4256,2.422,2.4219,2.4218,2.4179,2.4179,2.4178,2.4178,2.4103,2.41,2.4098,2.4084,0,0,2.4089,2.4087,0,0,0,0,0,0,0,0,2.4332,2.4325,2.4264,2.4261,2.4258,2.4208,2.4223,2.4173,2.4179,2.4208,2.4178,2.4178,2.4137,2.4131,2.4118,2.408,2.4077,2.4088,2.4087,2.4085,2.4085,0,0,0,0,0,0,0,2.4335,2.4328,2.4261,2.4264,2.4259,2.4248,2.424,2.4213,2.4174,2.4205,2.4202,2.4195,2.4135,2.4121,2.4116,2.4076,2.4089,2.4086,2.4084,2.4083,2.4022,2.4022,0,0,0,0,0,0,2.4344,2.4331,2.4263,2.4259,2.4295,2.4246,2.4238,2.4224,2.4174,2.4167,2.4195,2.4194,2.4126,2.412,2.4114,2.4094,2.4086,2.4083,2.4081,2.4021,2.4022,2.4022,0,0,0,0,0,0,2.4346,2.4339,2.4266,2.4294,2.4284,2.4245,2.4229,2.4223,2.4209,2.4167,2.4159,2.4189,2.4126,2.4118,2.4092,2.409,2.4082,2.4079,2.4021,2.4022,2.4022,2.4054,0,0,0,0,0,0,2.4349,2.434,2.4335,2.4295,2.4283,2.4247,2.4229,2.4221,2.4205,2.4202,2.4159,2.4152,2.4125,2.4096,2.4089,2.4086,2.4077,2.4021,2.4021,2.4022,2.4053,2.4055,2.4057,0,0,0,0,0,2.4353,2.4346,2.4335,2.4327,2.4277,2.4247,2.424,2.4212,2.4205,2.4199,2.4172,2.4153,2.4092,2.4094,2.4085,2.4082,2.4021,2.4021,2.4022,2.4052,2.4055,2.4057,0,0,0,0,0,0,2.4385,2.434,2.4328,2.4308,2.4282,2.4241,2.4233,2.4216,2.419,2.4188,2.4152,2.4142,2.4119,2.4098,2.4101,2.4065,2.4054,2.4053,2.408,2.4083,2.4085,2.409,2.4074,0,0,0,0,0,2.439,2.4372,2.4333,2.4319,2.4307,2.4272,2.4258,2.4239,2.4209,2.4198,2.4168,2.4139,2.4113,2.4097,2.4071,2.405,2.4039,2.4043,2.4045,2.4047,2.4046,2.4033,2.4034,2.4022,2.4022,2.4022,0,0,2.44,2.4373,2.4363,2.4325,2.4302,2.4282,2.4263,2.4243,2.4227,2.4194,2.4168,2.4146,2.411,2.4087,2.4075,2.4068,2.4047,2.4048,2.405,2.4047,2.4033,2.4034,2.4035,2.4023,2.4022,2.4022,0,0,2.4408,2.4386,2.4372,2.4351,2.4318,2.4295,2.4292,2.4253,2.4238,2.4212,2.4187,2.4167,2.4123,2.4099,2.4081,2.4081,2.4061,2.4073,2.4084,2.4071,2.4072,2.4073,2.4072,2.4072,2.4072,2.4072,2.4072,0,2.4423,2.4394,2.4367,2.4348,2.4331,2.4303,2.4288,2.4267,2.4227,2.4215,2.4209,2.4154,2.4128,2.4098,2.4099,2.4085,2.4079,2.4077,2.4075,2.4075,2.4075,2.4073,2.4073,2.4074,2.4073,2.4073,2.4073,0,2.4415,2.4395,2.4387,2.4351,2.4334,2.4317,2.4285,2.427,2.4252,2.423,2.4203,2.4172,2.4139,2.413,2.4112,2.4098,2.4094,2.4082,2.407,2.4078,2.4076,2.4075,2.4076,2.4075,2.4075,2.4074,0,0,2.4439,2.439,2.4387,2.4371,2.4333,2.4316,2.4297,2.4267,2.4255,2.4228,2.421,2.4174,2.4163,2.4142,2.4121,2.411,2.4111,2.4098,2.4097,2.4101,2.4092,2.4101,2.4101,2.4098,2.4098,2.4098,2.4095,0,2.4441,2.4408,2.4383,2.4359,2.434,2.4313,2.4296,2.427,2.4249,2.4228,2.4203,2.4178,2.4165,2.4153,2.4141,2.4113,2.4108,2.4113,2.408,2.4079,2.4089,2.41,2.411,2.4108,2.4094,2.4094,2.4094,0,2.4438,2.4415,2.4389,2.4354,2.4345,2.4331,2.4301,2.4282,2.4251,2.4236,2.4214,2.4193,2.417,2.4161,2.4128,2.4132,2.4117,2.4101,2.41,2.4095,2.4086,2.4094,2.4107,2.4107,2.4092,2.4092,2.4092,0,2.4458,2.442,2.44,2.4386,2.4344,2.4335,2.4317,2.4286,2.427,2.4243,2.4232,2.4202,2.4186,2.4163,2.4133,2.4129,2.4103,2.4091,2.4088,2.4089,2.4082,2.4083,2.4092,2.4075,2.4075,2.4075,2.4075,0,2.4462,2.4447,2.4408,2.4396,2.4378,2.4349,2.4332,2.4311,2.4284,2.4266,2.424,2.4223,2.4185,2.4163,2.4139,2.4115,2.4108,2.4094,2.4087,2.4096,2.4097,2.4084,2.4083,2.4074,2.4074,2.4074,2.4075,0,2.4481,2.4454,2.4431,2.4394,2.4384,2.4373,2.434,2.4326,2.4303,2.428,2.4273,2.4237,2.421,2.4178,2.414,2.4124,2.4101,2.4092,2.4112,2.4108,2.4106,2.4107,2.4106,2.4104,2.4089,2.409,2.409,0,2.4484,2.4473,2.4435,2.4422,2.4406,2.4385,2.4368,2.4339,2.4322,2.4287,2.4277,2.4248,2.4223,2.418,2.4149,2.412,2.4109,2.4111,2.4104,2.4113,2.4108,2.4109,2.4107,2.4113,2.4113,2.4113,2.4114,0,2.4494,2.4481,2.446,2.4434,2.4416,2.4393,2.437,2.436,2.4325,2.4308,2.4281,2.4262,2.4224,2.4195,2.4161,2.414,2.412,2.4116,2.4114,2.4121,2.4133,2.4126,2.4116,2.4116,2.4116,2.4116,2.4116,2.4115,2.4504,2.4493,2.4465,2.4442,2.4421,2.44,2.4385,2.4362,2.4339,2.4307,2.4291,2.4264,2.4232,2.4186,2.4166,2.4143,2.4136,2.4133,2.4131,2.4131,2.4133,2.4138,2.4136,2.4136,2.4136,2.4136,2.4136,0,2.4511,2.4493,2.4472,2.4441,2.4422,2.4408,2.4381,2.4366,2.4343,2.4317,2.4294,2.4262,2.4234,2.4202,2.4171,2.4159,2.4149,2.4152,2.4152,2.4147,2.4141,2.4146,2.416,2.416,2.416,2.416,2.416,2.416,2.4513,2.4493,2.4477,2.4446,2.4427,2.4402,2.4387,2.4367,2.4346,2.4313,2.429,2.427,2.4241,2.4208,2.4181,2.4172,2.4161,2.4167,2.4155,2.4149,2.4147,2.4145,2.415,2.4165,2.4165,2.4163,2.4163,2.4163]}]]